Location: Clair
(33.8067°N, 117.9845°W)
Time: 18:34:07
(UTC+00:00)

Meteor 1-11 - Pass Details

Date: 14 February 2026
Orbit: 828 x 895 km, 81.2° (Epoch: 8 March)

Event Time Altitude Azimuth Distance (km) Brightness Sun altitude
Rises 12:55:49 0° 348° (NNW) 3,510 7.3 -21.6°
Reaches altitude 10° 12:58:18 10° 345° (NNW) 2,570 6.5 -21.1°
Maximum altitude 13:04:06 65° 265° (W) 976 4.2 -19.9°
Drops below altitude 10° 13:09:51 10° 184° (S) 2,549 6.7 -18.7°
Sets 13:12:18 0° 182° (S) 3,479 7.4 -18.2°
